Preview of NWS' New Version of Forecast
This preview is not operational and should not be used for support decisions.

Regional Weather Roundup (RWR)

Issued by National Weather Service (NWS)

                            
000
ASUS45 KBOI 261210
RWRID 

IDAHO REGIONAL WEATHER ROUNDUP
NATIONAL WEATHER SERVICE BOISE ID
600 AM MDT TUE MAR 26 2019

NOTE: "FAIR" INDICATES FEW OR NO CLOUDS BELOW 12000 FEET
WITH NO SIGNIFICANT WEATHER AND/OR OBSTRUCTIONS TO VISIBILITY

IDZ012-014-261300-
SOUTHWEST IDAHO

  
CITY           SKY/WX    TMP DP  RH WIND       PRES   REMARKS
BOISE          CLOUDY    47  32  56 NW3       30.01R                  
CALDWELL       CLOUDY    44  35  70 N9        30.00R                  
MOUNTAIN HOME  PTCLDY    39  32  76 E7        29.98R WCI  34          
$$

IDZ016-017-261300-
SOUTHCENTRAL IDAHO

  
CITY           SKY/WX    TMP DP  RH WIND       PRES   REMARKS
BURLEY         CLOUDY    36  29  75 NE7       29.98F WCI  30          
JEROME         CLOUDY    40  29  64 NE18      29.98R WCI  31          
TWIN FALLS     CLOUDY    34  30  85 SE3       29.97S                  
$$

IDZ019>023-261300-
SOUTHEAST IDAHO

  
CITY           SKY/WX    TMP DP  RH WIND       PRES   REMARKS
IDAHO FALLS    MOCLDY    31  26  82 N8        30.06F WCI  23          
POCATELLO      MOCLDY    28  25  88 CALM      30.04S                  
REXBURG        CLOUDY    30  23  75 NE5       30.07F WCI  25          
$$

IDZ006-010-011-018-031-032-261300-
CENTRAL IDAHO MOUNTAINS

  
CITY           SKY/WX    TMP DP  RH WIND       PRES   REMARKS
MCCALL         CLOUDY    37  29  72 CALM      29.97S                  
HAILEY         CLOUDY    34  28  80 NW7       30.05S WCI  28          
STANLEY          N/A     29  20  69 CALM      30.00R                  
SALMON         CLOUDY    34  29  82 CALM      30.00F                  
CHALLIS        CLOUDY    32  25  75 CALM      30.01F                  
$$

IDZ002-004-006-007-026-261300-
NORTHERN IDAHO

  
CITY           SKY/WX    TMP DP  RH WIND       PRES   REMARKS
LEWISTON       LGT RAIN  46  44  93 SE6       30.02R FOG              
LOWELL           N/A     38  35  89 N3        30.03R                  
COEUR D'ALENE  CLOUDY    42  38  85 S6        29.97R                  
MULLAN PASS    SNOW      31  30  96 VRB5      29.93R VSB 1/4 WCI  26  
$$